Regional Weather Roundup
Issued by NWS Cleveland, OH

Home | Current Version | Previous Version | Graphics & Text | Print | Product List | Glossary On
Versions: 1 2 3 4 5 6 7 8 9 10 11 12 13 14 15 16 17 18 19 20 21 22 23 24 25 26 27 28 29 30 31 32 33 34 35 36 37 38 39 40 41 42 43 44 45 46 47 48 49 50
000
ASUS41 KCLE 212302
RWRCLE
OHIO REGIONAL WEATHER ROUNDUP
NATIONAL WEATHER SERVICE CLEVELAND, OH
700 PM EDT SAT APR 21 2018

NOTE: "FAIR" INDICATES FEW OR NO CLOUDS BELOW 12,000 FEET WITH NO
SIGNIFICANT WEATHER AND/OR OBSTRUCTIONS TO VISIBILITY.

OHZ001>008-015>018-024>027-034-035-043-044-220000-
   NORTHWEST OHIO

CITY           SKY/WX    TMP DP  RH WIND       PRES   REMARKS
DEFIANCE       PTSUNNY   55  27  34 E5        30.38
FINDLAY        CLOUDY    54  19  25 NE12      30.38F
TOLEDO EXPRESS FAIR      53  20  27 NE9       30.40F
TOLEDO EXEC    FAIR      51  16  24 E8        30.42F
LIMA           PTSUNNY   52  27  38 NE13      30.37F
$$

OHZ009>014-019>023-028>033-038-089-220000-
   NORTHEAST OHIO

CITY           SKY/WX    TMP DP  RH WIND       PRES   REMARKS
CLE-HOPKINS    CLOUDY    45  22  40 N7        30.43S
CLE-LAKEFRONT  FAIR      42  31  64 NE9       30.41S
CUY CO. ARPT   CLOUDY    48  23  37 N7        30.41S
LORAIN-ELYRIA  FAIR      47  19  33 N6        30.41S
ASHTABULA      FAIR      47  26  44 N3        30.41S
AKRON-CANTON   PTSUNNY   56  16  20 VRB3      30.37S
WOOSTER        FAIR      52  27  38 N12       30.38S
MANSFIELD      PTSUNNY   52  24  33 NW9       30.38S
YOUNGSTOWN     CLOUDY    52  31  44 N13       30.37R
$$

OHZ042-051>053-060>062-070>072-077>081-220000-
  SOUTHWEST OHIO

CITY           SKY/WX    TMP DP  RH WIND       PRES   REMARKS
CINC-COVINGTON CLOUDY    59  19  21 E10       30.30F
CINC-LUNKEN    FAIR      59  31  34 NE12      30.32F
HAMILTON       FAIR      57  24  28 NE10      30.34S
DAYTON         CLOUDY    54  24  31 NE8       30.35F
WRIGHT-PAT AFB PTSUNNY   56  22  26 NE8       30.35S
DAYTON GENERAL FAIR      56  22  26 E7        30.33F
WILMINGTON     FAIR      54  27  35 NE7       30.33F
$$

OHZ036-037-039>041-045>050-054>059-063>069-073>076-082>088-220000-
  CENTRAL AND SOUTHEAST OHIO

CITY           SKY/WX    TMP DP  RH WIND       PRES   REMARKS
COLUMBUS       CLOUDY    57  19  22 N8        30.35S
OSU AIRPORT    PTSUNNY   55  23  28 N12       30.35S
BOLTON FIELD   CLOUDY    55  25  30 N8        30.36S
RICKENBACK AFB NOT AVBL
NEWARK         FAIR      57  21  24 N6        30.34S
MARION         CLOUDY    51  17  26 N12       30.38F
LANCASTER      FAIR      57  30  35 N7        30.35S
ZANESVILLE     PTSUNNY   57  22  25 N6        30.34S
NEW PHILLY     FAIR      56  24  29 NW5       30.37S
$$



USA.gov is the U.S. government's official web portal to all federal, state and local government web resources and services.